COSMOS 2491 DEB, 57560

Orbit data source: Space-Track

COSMOS 2491 DEB, 57560 is space debris in LEO originally from a launch on Wed, 25 Dec 2013 UTC launched from the Plesetsk Missile And Space Complex (PKMTR). Debris objects in space refer to the collection of defunct objects orbiting the Earth. Examples of debris include non-operational satellites, rocket bodies, and fragments generated from explosions, collisions, or faulty payload assembly.

Loading next visibility...
Identifier
57560, 2013-076AX
Orbit
LEO
Country
Flag of CISCIS
Related business
Manufacturer
TsNIIKhM
Mission
Spacecraft
Bus & Motor
Unknown
Mass
Unknown
Launch date (UTC)
2013-12-25 (12 years ago)
Launch vehicle
Unknown
Launch site
Plesetsk Missile And Space Complex (PKMTR)
Object type
Payload
Rocket body
Debris
Shape & HBR
Unknown shape, 0.1 m
Radar Cross Section
Small (<0.1 m²)

Expand to show TLE details & history
Last TLE update: 3 days ago

TLE from 3 days ago
0 COSMOS 2491 DEB
1 57560U 13076AX  25283.82039319  .00002411  00000-0  14767-1 0  9999
2 57560  82.4834 313.1864 0084040 122.8724 238.0485 12.54120726110914
Epoch: 2025-10-10T19:41Z
TLE epoch observation values (Epoch: 2025-10-10T19:41:21.971Z)
Latitude
-0.00011°
Longitude
-1.81591°
Altitude
1,485.227 km
Speed
7.105 km/s
True Right ascension
20h 52m 44s
True Declination
0° 00' 00"
Sunlit
Object was in daylight at epoch
Visualization orbit readout
Latitude
Unknown
Longitude
Unknown
Altitude
Unknown
Speed
Unknown
Apparent Right ascension
Unknown
Apparent Declination
Unknown
Sunlit
N/A
Visualization observer readout
Local Sidereal Time
19:04:51
Azimuth
Unknown
Elevation
Unknown
Doppler factor
Unknown
Orbital elements
Apogee altitude
1,510.385 km
Perigee altitude
1,378.899 km
Semi-major axis
7,822.779 km
Eccentricity
0.0084
Inclination
82.4834°
RAAN
313.1864°
Arg. of periapsis
122.8724°
True anomaly
237.23592°
Mean anomaly
238.0485°
Eccentric anomaly
237.64176°
Mean motion
3.13691 °/min
Orbital period
114.76 mins
BSTAR
0.014767
Loading maneuver chart data...
Computing Atmospheric mass density...
Loading historical data...
Loading historical data...
Loading historical data...
Loading historical data...
Loading historical data...
Loading historical data...
Loading historical data...

Documentation

Showing up to 5 results
|